Powrót do katalogu

NOAA 16 DEB

AktywnySSO
NORAD 41138·DEBRIS·🇺🇸 United States

Wystrzelony Sep 21, 2000 z Vandenberg Space Force Base

Loading…

Następne Przeloty (najbliższe 24 godziny)

TLE

ŚwieżeSource: Space-Track

Epoka: Sep 14, 2026, 11:12 UTC

1 41138U 00055BV  26257.46704577 -.00000795  00000-0 -31069-3 0  9994
2 41138  98.7020 342.2874 0012908 118.8722 241.3755 14.26593076557001

Śledź NOAA 16 DEB w czasie rzeczywistym z AllMySat

Download on the App Store